| time (UTC) | temp F | wind direction | speed knots | gust knots | rain 1hr in | rain 24hr in | rain mn in | humidity % | barometer mb |
| 20260904223024 | 63 | 38 | 1.7 | 0.0 | 0.00 | 0.00 | 0.20 | 91 | 1013.9 |
| 20260904221541 | 63 | 19 | 1.7 | 0.0 | 0.00 | 0.00 | 0.20 | 92 | 1013.7 |
| 20260904220022 | 63 | 337 | 1.7 | 0.0 | 0.00 | 0.00 | 0.20 | 92 | 1013.9 |
| 20260904214522 | 63 | 48 | 1.7 | 0.0 | 0.00 | 0.00 | 0.20 | 92 | 1014.0 |
| 20260904213020 | 63 | 9 | 2.6 | 0.0 | 0.00 | 0.00 | 0.20 | 92 | 1013.7 |
| 20260904211518 | 63 | 309 | 1.7 | 0.0 | 0.00 | 0.00 | 0.20 | 92 | 1013.7 |
| 20260904210018 | 63 | 19 | 2.6 | 0.0 | 0.00 | 0.00 | 0.20 | 92 | 1013.6 |
| 20260904204516 | 63 | 56 | 2.6 | 0.0 | 0.00 | 0.00 | 0.20 | 93 | 1013.7 |
| 20260904203046 | 63 | 92 | 1.7 | 0.0 | 0.00 | 0.00 | 0.20 | 93 | 1013.6 |
| 20260904201548 | 63 | 358 | 2.6 | 0.0 | 0.00 | 0.00 | 0.20 | 94 | 1013.4 |
| 20260904200014 | 63 | 333 | 1.7 | 0.0 | 0.00 | 0.00 | 0.20 | 94 | 1013.2 |
| 20260904194522 | 63 | 65 | 1.7 | 0.0 | 0.00 | 0.00 | 0.20 | 95 | 1013.3 |
| 20260904193016 | 62 | 98 | 1.7 | 0.0 | 0.00 | 0.00 | 0.20 | 95 | 1013.3 |
| 20260904191510 | 62 | 77 | 1.7 | 0.0 | 0.00 | 0.00 | 0.20 | 95 | 1013.3 |
| 20260904190009 | 63 | 60 | 1.7 | 0.0 | 0.00 | 0.00 | 0.20 | 95 | 1013.4 |
| 20260904184508 | 63 | 37 | 1.7 | 0.0 | 0.00 | 0.00 | 0.20 | 95 | 1013.4 |
| 20260904183008 | 63 | 347 | 1.7 | 0.0 | 0.00 | 0.00 | 0.20 | 95 | 1013.2 |
| 20260904181504 | 63 | 27 | 1.7 | 0.0 | 0.00 | 0.00 | 0.20 | 96 | 1012.9 |
| 20260904180002 | 63 | 19 | 0.9 | 0.0 | 0.00 | 0.00 | 0.20 | 97 | 1012.9 |
| 20260904174503 | 62 | 40 | 0.9 | 0.0 | 0.00 | 0.00 | 0.20 | 96 | 1013.0 |
| 20260904173106 | 62 | 38 | 0.9 | 0.0 | 0.00 | 0.00 | 0.20 | 96 | 1013.0 |
| 20260904171557 | 62 | 37 | 1.7 | 0.0 | 0.00 | 0.00 | 0.20 | 97 | 1012.9 |
| 20260904170056 | 62 | 14 | 1.7 | 0.0 | 0.00 | 0.00 | 0.20 | 97 | 1012.8 |
| 20260904164559 | 62 | 55 | 1.7 | 0.0 | 0.00 | 0.00 | 0.20 | 97 | 1012.7 |
| 20260904163050 | 61 | 70 | 2.6 | 0.0 | 0.00 | 0.00 | 0.20 | 96 | 1012.9 |
| 20260904161549 | 61 | 353 | 1.7 | 0.0 | 0.00 | 0.00 | 0.20 | 96 | 1012.7 |
| 20260904160047 | 61 | 46 | 1.7 | 0.0 | 0.00 | 0.00 | 0.20 | 97 | 1012.6 |
| 20260904154544 | 61 | 105 | 1.7 | 0.0 | 0.00 | 0.00 | 0.20 | 97 | 1012.5 |
| 20260904153044 | 61 | 48 | 1.7 | 0.0 | 0.00 | 0.00 | 0.20 | 97 | 1012.3 |
| 20260904151545 | 60 | 29 | 2.6 | 0.0 | 0.00 | 0.00 | 0.20 | 96 | 1012.1 |
| 20260904150038 | 61 | 69 | 1.7 | 0.0 | 0.00 | 0.00 | 0.20 | 97 | 1012.0 |
| 20260904144535 | 61 | 170 | 2.6 | 0.0 | 0.00 | 0.00 | 0.20 | 97 | 1011.8 |
| 20260904143034 | 61 | 9 | 2.6 | 0.0 | 0.00 | 0.00 | 0.19 | 97 | 1011.8 |
| 20260904141547 | 60 | 32 | 1.7 | 0.0 | 0.00 | 0.00 | 0.19 | 97 | 1011.7 |
| 20260904140028 | 60 | 44 | 1.7 | 0.0 | 0.00 | 0.00 | 0.19 | 97 | 1011.7 |
| 20260904134526 | 59 | 46 | 1.7 | 0.0 | 0.00 | 0.00 | 0.19 | 97 | 1011.8 |
| 20260904133025 | 59 | 54 | 0.9 | 0.0 | 0.00 | 0.00 | 0.19 | 97 | 1012.0 |
| 20260904131523 | 59 | 67 | 0.9 | 0.0 | 0.00 | 0.00 | 0.19 | 97 | 1012.0 |
| 20260904130022 | 58 | 65 | 0.9 | 0.0 | 0.00 | 0.00 | 0.19 | 97 | 1011.8 |
| 20260904124523 | 58 | 63 | 1.7 | 0.0 | 0.00 | 0.00 | 0.18 | 96 | 1011.7 |
| 20260904123020 | 58 | 90 | 1.7 | 0.0 | 0.00 | 0.00 | 0.18 | 96 | 1011.4 |
| 20260904121527 | 58 | 45 | 1.7 | 0.0 | 0.00 | 0.00 | 0.18 | 96 | 1011.3 |
| 20260904120018 | 58 | 28 | 0.9 | 0.0 | 0.00 | 0.00 | 0.18 | 96 | 1011.1 |
| 20260904114518 | 58 | 9 | 1.7 | 0.0 | 0.00 | 0.00 | 0.18 | 96 | 1010.8 |
| 20260904113030 | 58 | 57 | 1.7 | 0.0 | 0.00 | 0.00 | 0.18 | 96 | 1010.9 |
| 20260904111523 | 58 | 59 | 0.9 | 0.0 | 0.00 | 0.00 | 0.18 | 96 | 1010.9 |
| 20260904110014 | 58 | 53 | 1.7 | 0.0 | 0.00 | 0.00 | 0.18 | 96 | 1010.7 |
| 20260904104514 | 58 | 14 | 1.7 | 0.0 | 0.00 | 0.00 | 0.18 | 95 | 1010.5 |
| 20260904103011 | 58 | 107 | 2.6 | 0.0 | 0.00 | 0.00 | 0.18 | 96 | 1010.6 |
| 20260904101511 | 58 | 81 | 1.7 | 0.0 | 0.00 | 0.00 | 0.18 | 96 | 1010.5 |
| 20260904100010 | 58 | 94 | 1.7 | 0.0 | 0.00 | 0.00 | 0.18 | 96 | 1010.5 |
| 20260904094510 | 58 | 70 | 1.7 | 0.0 | 0.00 | 0.00 | 0.18 | 96 | 1010.4 |
| 20260904093008 | 58 | 126 | 1.7 | 0.0 | 0.00 | 0.00 | 0.18 | 95 | 1010.1 |
| 20260904091508 | 58 | 14 | 1.7 | 0.0 | 0.00 | 0.00 | 0.18 | 96 | 1010.2 |
| 20260904090004 | 58 | 92 | 1.7 | 0.0 | 0.00 | 0.00 | 0.18 | 95 | 1010.7 |
| 20260904084503 | 58 | 69 | 1.7 | 0.0 | 0.00 | 0.00 | 0.18 | 95 | 1010.5 |
| 20260904083003 | 58 | 102 | 2.6 | 0.0 | 0.00 | 0.00 | 0.18 | 95 | 1010.3 |
| 20260904081557 | 57 | 19 | 2.6 | 0.0 | 0.00 | 0.00 | 0.18 | 95 | 1010.7 |
| 20260904080156 | 57 | 61 | 2.6 | 0.0 | 0.00 | 0.00 | 0.18 | 94 | 1010.7 |
| 20260904074554 | 57 | 42 | 1.7 | 0.0 | 0.00 | 0.00 | 0.07 | 94 | 1011.9 |
| 20260904073055 | 57 | 19 | 2.6 | 0.0 | 0.00 | 0.00 | 0.00 | 94 | 1011.6 |
| 20260904071549 | 57 | 53 | 2.6 | 0.0 | 0.00 | 0.00 | 0.00 | 94 | 1011.2 |
| 20260904070151 | 57 | 56 | 1.7 | 0.0 | 0.00 | 0.00 | 0.00 | 94 | 1011.8 |
| 20260904064557 | 57 | 130 | 1.7 | 0.0 | 0.00 | 0.00 | 0.00 | 94 | 1011.7 |
| 20260904063047 | 57 | 58 | 0.9 | 0.0 | 0.00 | 0.00 | 0.00 | 94 | 1011.8 |
| 20260904061538 | 57 | 48 | 1.7 | 0.0 | 0.00 | 0.00 | 0.00 | 94 | 1011.7 |
| 20260904060033 | 57 | 350 | 2.6 | 0.0 | 0.00 | 0.00 | 0.00 | 94 | 1011.5 |
| 20260904054535 | 57 | 360 | 1.7 | 0.0 | 0.00 | 0.00 | 0.46 | 93 | 1011.8 |
| 20260904053132 | 57 | 84 | 2.6 | 0.0 | 0.00 | 0.00 | 0.46 | 93 | 1012.0 |
| 20260904051534 | 57 | 47 | 0.9 | 0.0 | 0.00 | 0.00 | 0.46 | 93 | 1012.1 |
| 20260904050032 | 58 | 9 | 2.6 | 0.0 | 0.00 | 0.00 | 0.46 | 93 | 1011.8 |
| 20260904044541 | 58 | 343 | 1.7 | 0.0 | 0.00 | 0.00 | 0.46 | 93 | 1011.4 |
| 20260904043131 | 58 | 92 | 1.7 | 0.0 | 0.00 | 0.00 | 0.45 | 93 | 1012.0 |
| 20260904041536 | 58 | 41 | 1.7 | 0.0 | 0.00 | 0.00 | 0.42 | 93 | 1011.5 |
| 20260904040030 | 59 | 50 | 0.9 | 0.0 | 0.00 | 0.00 | 0.38 | 92 | 1012.5 |
| 20260904034531 | 60 | 19 | 1.7 | 0.0 | 0.00 | 0.00 | 0.36 | 91 | 1012.4 |
| 20260904033131 | 61 | 171 | 1.7 | 0.0 | 0.00 | 0.00 | 0.16 | 88 | 1014.9 |
| 20260904031541 | 61 | 293 | 3.5 | 0.0 | 0.00 | 0.00 | 0.04 | 85 | 1015.2 |
| 20260904030035 | 63 | 29 | 1.7 | 0.0 | 0.00 | 0.00 | 0.02 | 77 | 1012.0 |
| 20260904024534 | 63 | 181 | 1.7 | 0.0 | 0.00 | 0.00 | 0.00 | 76 | 1011.9 |
| 20260904023033 | 63 | 56 | 1.7 | 0.0 | 0.00 | 0.00 | 0.00 | 78 | 1012.2 |
| 20260904021502 | 64 | 38 | 2.6 | 0.0 | 0.00 | 0.00 | 0.00 | 79 | 1012.1 |
| 20260904020003 | 64 | 352 | 1.7 | 0.0 | 0.00 | 0.00 | 0.00 | 80 | 1012.0 |
| 20260904014626 | 64 | 79 | 1.7 | 0.0 | 0.00 | 0.00 | 0.00 | 79 | 1012.1 |
| 20260904013100 | 64 | 89 | 0.9 | 0.0 | 0.00 | 0.00 | 0.00 | 79 | 1012.4 |
| 20260904011608 | 64 | 60 | 0.9 | 0.0 | 0.00 | 0.00 | 0.00 | 79 | 1011.5 |
| 20260904010059 | 64 | 41 | 0.9 | 0.0 | 0.00 | 0.00 | 0.00 | 79 | 1011.3 |
| 20260904004530 | 64 | 5 | 1.7 | 0.0 | 0.00 | 0.00 | 0.00 | 79 | 1011.1 |
| 20260904003029 | 64 | 31 | 1.7 | 0.0 | 0.00 | 0.00 | 0.00 | 78 | 1011.2 |
| 20260904001558 | 65 | 51 | 1.7 | 0.0 | 0.00 | 0.00 | 0.00 | 77 | 1011.0 |
| 20260904000100 | 65 | 359 | 2.6 | 0.0 | 0.00 | 0.00 | 0.00 | 75 | 1011.2 |
| 20260903234554 | 66 | 60 | 1.7 | 0.0 | 0.00 | 0.00 | 0.00 | 76 | 1011.3 |
| 20260903233053 | 66 | 33 | 1.7 | 0.0 | 0.00 | 0.00 | 0.00 | 76 | 1011.5 |
| 20260903231603 | 66 | 31 | 1.7 | 0.0 | 0.00 | 0.00 | 0.00 | 75 | 1011.6 |
| 20260903230052 | 67 | 104 | 0.9 | 0.0 | 0.00 | 0.00 | 0.00 | 73 | 1011.7 |
| 20260903224549 | 68 | 62 | 0.9 | 0.0 | 0.00 | 0.00 | 0.00 | 73 | 1011.6 |